RH
26 31 34 32 33 35 73 86 92 84 80 85 90 92 92 90 85 79 64 50 62 65 61 65 65 70 74 78 80 85 89 91 90 92 95 94 90 91 90 90 84 84 88 87
28 33 28 25 26 56 69 86 91 88 88 87 91 89 94 92 88 85 80 61 55 65 70 63 69 72 73 76 81 86 88 90 89 89 91 92 90 94 92 90 89 88 86 89
30 27 22 22 29 64 86 82 91 80 88 85 89 90 97 95 92 88 79 68 62 66 68 69 72 74 74 77 83 85 89 89 92 90 94 94 91 95 96 95 94 88 86 86
28 24 22 27 27 59 79 62 68 76 90 92 86 96 94 92 93 88 79 79 74 63 62 66 69 75 73 73 79 84 88 88 90 93 92 89 87 91 95 91 91 87 85 85
21 20 26 26 23 39 54 65 74 72 90 91 94 96 84 96 94 91 84 79 76 60 62 69 66 65 68 68 76 82 90 91 92 93 89 90 90 90 92 93 90 92 91 88
18 17 17 18 38 42 66 78 84 88 89 96 81 89 87 97 85 80 78 71 76 67 63 67 63 60 69 70 74 83 89 92 93 92 90 90 90 90 94 94 93 91 90 91
24 22 63 63 78 69 71 83 94 90 92 89 93 96 80 71 71 70 71 70 73 66 63 67 68 66 72 75 75 82 89 92 93 90 90 90 89 90 90 91 95 95 96 94
28 25 72 61 74 80 77 70 81 80 83 87 92 95 76 61 59 59 54 63 73 71 63 64 63 68 72 72 76 78 87 88 93 91 90 92 91 88 91 91 96 94 91 87
33 30 42 53 56 58 71 72 71 83 88 91 91 80 63 65 67 63 61 65 72 70 64 64 62 68 72 71 78 79 87 85 89 88 91 92 91 90 93 92 94 96 94 88
29 35 26 42 45 56 58 57 72 80 79 83 79 86 84 72 70 64 62 65 63 67 66 64 60 65 72 68 71 76 85 83 85 86 87 88 89 89 90 93 93 92 92 91
35 30 29 29 42 54 41 58 57 61 80 75 76 67 82 89 76 64 60 57 62 65 64 64 62 69 72 72 75 76 83 86 87 88 90 89 88 87 88 88 92 93 91 92
33 35 41 34 25 30 31 37 44 48 35 77 68 58 72 87 76 68 69 65 63 64 65 63 62 76 83 79 81 83 83 84 82 85 90 88 89 89 90 91 91 93 93 92
30 42 50 49 46 35 51 66 46 39 44 58 40 35 66 78 89 72 69 72 71 75 81 83 81 85 84 80 84 87 88 86 83 88 87 94 92 91 91 91 93 93 92 93
42 44 42 48 50 48 66 66 69 63 60 66 70 82 79 77 87 92 93 68 71 81 85 86 87 86 89 86 85 87 88 88 91 91 92 93 93 94 94 92 91 94 94 92
32 51 50 50 56 59 65 67 74 81 84 77 89 90 84 85 93 92 91 94 69 79 85 86 86 79 86 90 89 89 90 92 91 91 93 93 92 94 94 95 95 94 94 94
42 50 56 60 53 60 67 65 72 80 87 94 92 91 80 89 87 92 96 96 92 74 79 87 80 85 87 85 90 88 91 93 93 92 92 94 95 96 96 96 96 96 95 96
50 51 54 67 59 48 53 68 77 83 88 86 90 88 82 92 92 97 95 95 99 99 96 98 98 92 93 92 88 90 94 96 95 95 97 96 96 96 97 97 98 98 97 98
57 68 65 58 55 62 58 56 62 78 83 88 94 87 92 88 96 97 97 97 98 98 98 99 99 99 98 97 96 98 98 97 97 98 99 99 98 98 98 98 98 98 98 99
56 65 76 66 77 65 64 58 62 69 72 77 83 83 80 85 94 95 93 95 97 98 98 98 98 99 99 99 98 98 99 98 97 98 98 99 99 99 99 99 99 99 100 99
59 65 56 86 71 70 63 64 62 62 73 67 75 78 80 90 85 95 97 90 92 94 97 98 98 98 99 99 98 99 99 99 99 99 99 98 99 99 99 99 99 99 98 98
61 84 69 83 77 72 64 64 63 66 66 67 73 85 87 92 92 96 90 92 90 94 95 95 96 99 99 99 98 99 99 99 99 99 99 99 99 99 99 99 99 99 97 93
52 75 80 86 80 63 64 68 63 66 75 73 87 96 92 93 95 96 92 92 91 95 94 94 98 99 99 99 99 99 99 99 99 99 99 99 98 99 99 99 99 98 95 85
59 61 66 70 73 64 71 66 65 72 79 86 94 98 88 89 92 94 95 92 93 96 94 93 97 98 98 99 99 99 100 99 99 99 99 100 99 99 99 99 99 99 93 68
67 72 71 57 61 71 69 68 64 68 77 86 95 97 94 91 87 96 97 96 93 93 93 93 94 98 98 98 98 99 99 98 98 98 99 99 99 99 99 99 99 98 92 80
64 63 74 68 75 72 66 65 60 70 78 81 86 90 94 96 95 96 95 96 96 93 93 91 93 96 94 95 97 95 96 96 98 96 95 98 99 99 99 99 99 98 89 89
67 64 70 74 61 64 67 66 60 78 78 83 89 95 95 92 97 95 96 95 94 94 92 92 92 93 89 89 90 91 88 84 88 89 86 95 96 90 98 96 96 91 94 94
Wind_Speed
1 6 6 7 6 4 6 5 6 1 3 1 2 2 3 5 2 3 4 11 12 15 11 8 9 7 8 6 7 8 7 7 7 3 3 2 3 2 2 2 2 3 2 3
6 4 4 5 3 5 6 8 4 2 2 3 2 3 4 3 1 1 5 6 15 10 8 11 10 9 9 9 7 7 7 9 6 4 3 3 3 2 1 2 3 3 4 5
5 3 6 5 4 4 2 6 5 3 4 3 2 5 6 5 5 6 9 6 8 15 15 12 12 11 9 9 8 8 7 7 7 6 4 3 3 3 2 1 0 2 4 4
3 2 4 3 3 5 4 7 7 8 3 1 3 4 4 6 9 11 11 8 8 15 13 14 14 11 11 11 7 7 8 7 6 8 5 5 4 4 3 3 2 2 2 2
6 3 3 4 7 7 5 4 7 3 5 3 4 2 4 4 9 13 9 9 8 13 15 15 16 16 12 10 9 7 8 6 7 7 7 5 4 3 3 2 4 3 2 2
7 2 6 8 1 9 7 6 8 5 1 0 6 5 5 9 14 16 10 11 10 12 15 14 12 9 8 7 7 7 8 6 6 7 7 8 8 6 3 3 3 2 2 2
2 3 1 5 9 6 5 5 3 2 1 5 4 2 11 7 8 19 18 14 12 13 16 14 14 14 10 10 11 8 10 8 6 7 8 8 7 7 7 5 4 4 3 2
3 3 8 6 7 10 5 6 7 6 3 2 2 7 8 2 12 9 18 17 13 13 13 17 18 15 15 14 12 11 11 10 8 6 7 6 7 5 4 4 4 3 4 3
3 4 3 4 4 7 6 5 5 6 2 1 5 7 4 3 7 10 12 16 17 15 16 17 16 15 14 14 14 14 12 9 10 9 5 5 5 6 6 6 4 3 4 4
3 1 3 5 5 1 6 6 2 2 4 4 4 4 4 9 5 10 12 15 19 22 19 17 16 16 14 13 13 11 10 13 10 9 8 6 5 5 5 4 5 6 5 4
1 2 5 2 4 8 2 2 2 5 3 5 1 4 5 13 11 14 15 13 17 18 20 19 16 15 13 10 11 12 11 11 9 9 7 7 7 6 4 5 5 5 4 5
2 4 3 2 7 3 2 3 4 5 5 2 3 4 9 13 7 5 4 7 14 16 17 15 16 12 11 11 10 12 10 11 12 10 9 9 7 6 5 5 5 5 6 4
2 2 3 6 8 6 7 3 3 4 1 3 4 3 8 12 13 7 4 5 8 11 6 8 9 8 10 12 11 11 11 12 9 9 10 8 8 7 7 7 5 5 4 5
4 4 3 8 5 2 3 5 4 3 3 3 2 5 9 12 12 11 7 1 6 8 7 4 3 4 5 8 12 13 12 11 10 10 10 11 10 10 9 8 6 5 5 5
5 5 4 5 4 4 2 5 7 5 3 3 3 2 5 10 9 9 7 3 6 12 10 8 8 11 10 10 10 10 10 11 11 11 11 12 10 8 6 6 6 4 4 5
3 2 2 6 5 6 5 4 4 4 2 4 2 2 4 5 6 8 8 7 6 5 7 8 11 6 11 12 11 10 11 12 11 12 12 9 8 8 7 6 5 4 4 5
3 4 3 3 2 5 2 4 2 2 1 4 2 3 2 4 7 8 8 7 7 7 7 7 1 5 6 6 6 9 8 7 9 8 7 9 9 9 8 7 6 5 4 4
4 4 3 3 1 2 4 3 1 4 2 2 2 3 2 4 4 4 6 6 7 5 3 4 1 3 3 3 5 5 6 7 8 8 7 5 5 7 4 5 4 4 3 4
3 5 4 4 2 4 1 4 3 3 3 2 3 3 2 2 3 3 7 7 6 6 6 3 3 4 5 4 7 7 6 6 4 5 7 8 6 6 7 5 4 3 3 2
5 6 5 3 4 7 5 2 2 3 3 2 1 1 2 3 2 1 6 8 8 7 6 7 7 3 5 5 2 8 5 5 7 6 6 8 9 6 6 7 6 2 3 4
4 4 4 1 2 5 5 3 2 3 7 2 0 1 2 2 1 3 4 4 4 5 7 6 6 4 5 5 2 3 5 3 2 5 9 12 12 10 8 5 5 5 6 5
4 5 2 2 2 3 5 3 5 7 2 2 2 3 7 6 5 4 3 4 5 5 6 8 7 7 7 7 5 6 6 1 3 4 5 5 13 12 8 8 6 8 5 5
1 7 6 8 7 3 3 5 3 5 4 2 5 4 6 4 3 4 2 2 3 3 5 5 5 6 8 7 5 6 3 3 6 5 8 9 6 7 10 8 7 5 4 3
2 3 3 2 2 3 3 2 3 5 3 5 5 6 5 6 5 3 4 2 2 4 5 4 6 7 9 8 9 8 7 6 8 8 8 8 9 9 8 7 3 5 4 3
5 6 5 3 4 2 4 5 4 4 5 6 6 5 6 6 4 2 1 1 2 3 3 4 5 6 7 7 8 8 7 7 8 7 7 7 7 7 8 8 6 5 5 3
5 8 6 8 9 7 7 8 6 7 6 6 6 5 4 4 6 3 1 1 0 3 3 4 5 6 6 6 7 7 7 7 7 7 6 5 4 5 5 6 6 14 10 8
Wind_Direction
3 83 196 191 188 155 130 115 115 52 93 46 126 171 44 342 23 78 164 188 193 199 181 164 173 154 143 157 160 169 158 149 141 135 137 131 178 180 204 208 208 197 172 131
44 198 218 189 170 142 123 134 152 150 173 75 74 285 149 247 276 269 300 219 202 181 166 171 171 162 175 174 177 168 166 160 158 141 146 149 147 150 157 170 168 197 182 181
138 212 160 162 166 129 173 147 164 166 162 48 17 294 175 180 215 252 250 256 213 190 180 175 177 178 166 182 179 177 174 164 156 150 119 98 88 74 69 86 69 219 209 173
200 224 165 174 165 147 178 183 149 136 126 331 127 278 264 179 185 212 221 204 221 199 201 177 180 182 179 185 179 171 172 172 170 159 157 149 159 159 188 169 180 181 173 153
253 176 165 171 206 162 245 182 133 129 128 134 180 247 254 147 221 208 209 202 214 198 184 189 187 192 185 173 178 174 165 176 170 176 169 154 162 170 148 149 153 168 167 212
236 207 157 204 57 160 129 64 47 46 52 134 207 181 233 195 210 201 187 203 195 192 186 196 191 181 184 159 171 161 169 187 186 170 168 169 170 171 160 162 175 190 165 230
312 212 306 124 76 21 76 80 45 350 324 231 145 194 254 215 205 200 177 191 191 194 185 178 178 180 181 180 184 172 174 188 197 188 174 178 183 179 187 188 188 174 184 205
199 287 173 179 160 173 174 150 165 169 190 248 28 234 261 267 191 197 190 173 177 185 187 181 183 182 183 185 189 182 184 187 183 195 194 184 174 178 189 195 196 207 198 190
148 281 139 155 128 138 202 201 195 104 37 99 215 282 349 300 164 174 183 171 177 179 191 187 184 182 187 185 191 190 183 197 185 187 180 200 192 183 192 202 194 197 194 212
237 339 59 142 108 345 155 161 100 347 159 240 267 295 277 334 235 198 183 192 188 178 185 187 187 184 187 192 184 186 189 193 193 187 183 186 207 199 189 185 200 200 204 212
144 82 344 21 174 180 98 233 60 107 125 166 288 281 324 298 262 210 210 211 198 189 185 180 185 184 184 186 181 192 189 187 190 188 186 184 192 196 203 203 207 211 205 202
338 117 135 218 304 278 157 127 135 128 216 155 148 273 340 337 318 230 177 190 185 185 177 185 176 168 160 179 182 192 193 195 197 191 186 191 189 189 191 214 219 197 219 215
131 16 46 359 347 5 43 41 118 108 57 151 134 276 338 3 8 354 175 165 169 162 136 157 143 162 175 190 191 196 193 202 190 181 189 189 191 188 196 201 216 222 204 211
77 89 159 170 198 186 23 4 56 107 83 145 187 297 328 351 358 351 354 179 145 148 146 135 139 244 191 202 200 198 201 193 181 183 191 194 197 196 200 198 204 203 207 199
75 57 29 29 56 111 77 36 29 83 148 128 183 288 314 323 326 338 329 347 163 156 162 165 200 223 221 213 217 205 200 191 187 184 191 204 199 191 182 193 195 206 214 220
6 127 98 27 38 42 81 50 87 65 58 75 128 282 332 338 11 25 15 31 74 148 139 167 247 239 210 207 211 213 200 193 183 188 197 187 184 170 177 173 166 167 204 224
68 112 86 212 312 352 350 321 6 93 117 160 180 229 308 37 46 21 11 35 62 71 97 103 321 252 237 237 224 210 199 164 181 186 191 187 174 169 169 159 154 159 202 221
119 97 93 174 33 221 254 278 32 98 27 354 33 178 40 81 79 47 25 29 38 36 68 120 289 290 216 185 141 143 154 149 156 162 153 149 161 140 148 143 163 153 173 201
74 117 83 134 153 289 277 237 192 177 211 204 226 195 245 232 317 20 26 22 18 14 4 5 325 315 293 144 145 143 141 149 155 183 164 147 126 159 135 156 149 131 145 118
69 68 114 134 146 198 240 175 151 130 304 229 177 300 198 111 16 16 21 360 2 4 4 350 349 341 356 338 142 140 144 170 179 191 189 148 140 146 160 134 121 71 91 101
24 9 121 137 195 290 241 173 137 107 235 295 346 95 27 79 100 91 59 14 359 360 354 354 8 4 346 332 283 94 94 104 283 188 189 154 143 144 117 108 95 115 104 118
167 131 185 80 77 280 186 91 169 212 233 256 34 82 98 115 110 86 54 360 355 14 13 5 12 6 355 353 105 93 94 128 75 116 120 137 143 131 122 122 116 102 121 129
254 180 181 167 212 235 244 211 216 164 156 134 107 122 124 125 140 139 136 335 4 12 22 32 24 21 19 16 15 97 46 39 86 64 109 104 61 103 129 135 122 115 125 130
234 160 150 87 248 228 246 234 195 199 128 120 126 144 154 154 167 173 161 211 40 31 34 26 51 44 31 22 37 46 43 48 74 72 59 54 79 85 75 73 87 115 126 124
197 135 158 271 269 285 239 227 199 167 114 124 132 141 146 140 168 228 247 93 72 71 54 57 65 65 62 57 44 55 55 57 74 67 59 62 62 70 79 61 43 64 65 341
187 176 158 214 203 169 219 195 172 168 170 175 131 127 128 141 159 164 199 300 88 96 97 79 75 62 49 70 69 56 68 79 83 73 64 59 77 83 87 102 94 53 67 54